ASTRO H

导读

ASTRO-H是日本宇宙航空研究开发机构联合美国宇航局等研发的X射线天文卫星,于2016年2月17日在鹿儿岛县种子岛宇宙中心,由H-2A火箭发射升空。卫星重2.7吨,呈筒形全长14米,进入约580公里近地轨道,携带四台X射线望远镜,旨在观测遥远星系团与巨型黑洞释放的X射线,探索宇宙高能物理现象,原计划12日发射因天气推迟。

基本信息
目录编号:
41337
目录名称:
ASTRO H
国际标识:
2016-012A
轨道中心:
EARTH
卫星名称:
ASTRO H
卫星全名:
--
卫星状态:
在轨 (已飞行3862 天)
发射日期:
2016-02-17 UTC
国别 :
日本 (JP)
星等 :
--
该卫星已列入 空间交会检测服务 Space Conjunction Data Service (SCDS) ,当前飞行风险评估等级: 无高风险
轨道信息
数据来源 国际轨道数据 AOE轨道数据
星历时间 2026-09-14T07:13:45+0800
8小时前
查看轨道信息
2026-09-10T04:00:00+0800
4天前
查看轨道信息
半长轴 6911.71km 6911.778km
偏心率 0.0009312 0.0009521
轨道倾角 30.998° 30.997°
近地点辐角 66.954° 23.581°
升交点赤经 220.653° 247.371°
平近点角 293.208° 126.848°
近地点 527.136km 527.06km
远地点 540.01km 540.222km
周期 95.310分钟 95.311分钟
每日圈数 15.10861 15.108387
详细信息
使用方式:
暂无
2D轨道图
3D轨道图
轨道高度分析图
轨道倾角分析图
轨道综合分析图
查看轨道综合分析图
交会数据列表
事件ID 空间交会对象 最接近时刻(TCA) 交会距离 交会风险概率(CRP) 交会风险指数(CRI) 操作
CDM_260915-160404-133706-415722
ASTRO H (41337)
2026-09-15T
16:04:25+0000
2.832 km
极远距离
1.260562E-6 低风险 0.37
与全量物体交会距离演化趋势 订阅飞行安全评估服务
与全量物体交会风险概率演化趋势 订阅飞行安全评估服务